Погода в Посёлке Текстильщиков

Россия / Забайкальский край     52°04′20″N   113°23′04″E
темп.,
°C
ветер,
м/с
пор.,
м/с
влажн.,
%
обл.,
%
осадки,
мм/ч
давл.,
гПа
погр.,
м
25 мая, ср
ср2500:00+11зюз113977 0.0 102014
03:00+9юз114613 0.0 102112
06:00+8зюз11536 0.0 102213
09:00+15з23345 0.0 1020499
12:00+21зсз23208 0.0 10171796
15:00+24зсз24152 0.0 10142659
18:00+24сз34141 0.0 10112983
21:00+17зсз12265 0.0 101125
26 мая, чт
чт2600:00+13зсз013212 0.0 101213
03:00+10зюз01415 0.0 101111
06:00+9зюз11460 0.0 101113
09:00+17зюз23310 0.0 1008451
12:00+23з68185 0.0 10052715
15:00+25з581688 0.0 10003262
18:00+25з51019100 0.0 9973188
21:00+19з353394 0.0 996160
27 мая, пт
пт2700:00+14зсз38374 0.0 997231
03:00+11з514550 0.0 997569
06:00+10з611580 0.0 997948
09:00+12сз7104625 0.0 9971481
12:00+14сз7103699 0.0 9962635
15:00+17сз71121100 0.0 9953524
18:00+16ссз8112441 0.0 9963047
21:00+11с594351 0.0 9981022
28 мая, сб
сб2800:00+5ссз25725 0.0 1002173
03:00+3сз12792 0.0 100360
06:00+3зсз12805 0.0 100449
09:00+8ссз47344 0.0 10021558
12:00+13ссз5823100 0.0 10002851
15:00+15сз5719100 0.0 9983473
18:00+15с5621100 0.0 9992907
21:00+10ссз123494 0.0 1001207
29 мая, вс
вс2900:00+6ссз125310 0.0 100561
03:00+3ссз11708 0.0 100628
06:00+3сз117294 0.0 100735
09:00+9сз35405 0.0 10051538
12:00+12сз4628100 0.0 10032537
15:00+14сз4624100 0.0 10013312
18:00+14ссз462598 0.0 10002750
21:00+11зсз2438100 0.0 1000162